Total_Precipitation_Accumulation
0.18 0.18 0.18 0.22 0.18 0.11 0.03 0.01 0.01 0.00 0.01 0.01 0.01 0.02 0.03 0.03 0.05 0.13 0.14 0.13 0.12 0.16 0.27 0.54 0.74 0.76 0.91 0.95 0.87 0.79 0.77 0.76 0.80 0.84 0.86 0.86 0.81 0.77 0.78 0.78 0.77 0.86 0.96 0.99 0.99 0.92 0.87 0.84 0.80
0.19 0.24 0.29 0.30 0.15 0.07 0.03 0.01 0.01 0.01 0.01 0.01 0.02 0.01 0.02 0.04 0.04 0.07 0.13 0.16 0.16 0.20 0.27 0.41 0.71 0.77 0.91 0.97 0.91 0.86 0.81 0.77 0.82 0.86 0.85 0.86 0.88 0.88 0.82 0.79 0.83 0.88 0.98 1.05 0.98 0.87 0.85 0.84 0.79
0.31 0.36 0.36 0.31 0.12 0.04 0.03 0.02 0.01 0.01 0.01 0.02 0.02 0.02 0.02 0.05 0.07 0.09 0.11 0.15 0.21 0.23 0.26 0.47 0.76 0.81 0.90 0.98 1.01 0.97 0.95 0.91 0.89 0.90 0.85 0.86 0.88 0.87 0.84 0.83 0.86 0.88 0.93 0.94 0.94 0.90 0.88 0.83 0.75
0.46 0.54 0.44 0.29 0.09 0.02 0.02 0.02 0.01 0.02 0.02 0.02 0.02 0.02 0.04 0.04 0.06 0.08 0.11 0.14 0.20 0.26 0.29 0.54 0.82 0.95 0.98 1.01 1.07 1.04 1.02 1.05 1.05 1.01 0.97 0.96 0.96 0.92 0.86 0.83 0.82 0.83 0.88 0.92 0.89 0.88 0.87 0.84 0.75
0.60 0.63 0.47 0.23 0.07 0.03 0.02 0.02 0.03 0.03 0.03 0.04 0.04 0.04 0.06 0.06 0.06 0.09 0.14 0.16 0.19 0.28 0.34 0.54 0.88 1.09 1.07 1.07 1.12 1.13 1.18 1.23 1.25 1.20 1.15 1.13 1.09 1.06 1.01 0.93 0.84 0.78 0.78 0.80 0.84 0.84 0.84 0.87 0.81
0.78 0.69 0.40 0.16 0.07 0.04 0.03 0.04 0.05 0.06 0.05 0.06 0.06 0.08 0.10 0.12 0.13 0.17 0.23 0.28 0.28 0.35 0.42 0.60 1.00 1.16 1.15 1.18 1.21 1.23 1.27 1.35 1.36 1.32 1.27 1.23 1.16 1.13 1.15 1.09 0.93 0.80 0.70 0.67 0.70 0.73 0.79 0.80 0.78
0.80 0.62 0.31 0.13 0.08 0.07 0.04 0.05 0.07 0.09 0.10 0.10 0.07 0.08 0.13 0.19 0.19 0.24 0.33 0.44 0.50 0.48 0.55 0.74 0.99 1.18 1.27 1.28 1.24 1.22 1.28 1.35 1.41 1.39 1.33 1.27 1.15 1.12 1.11 1.08 0.98 0.85 0.75 0.68 0.66 0.68 0.72 0.72 0.73
0.78 0.68 0.36 0.16 0.11 0.09 0.06 0.06 0.07 0.10 0.11 0.11 0.11 0.10 0.12 0.17 0.22 0.29 0.43 0.56 0.66 0.69 0.74 0.90 1.10 1.18 1.23 1.29 1.26 1.23 1.23 1.25 1.31 1.32 1.28 1.15 1.08 1.05 1.04 0.97 0.91 0.85 0.83 0.76 0.68 0.67 0.69 0.63 0.59
0.92 0.87 0.41 0.16 0.12 0.09 0.05 0.06 0.08 0.10 0.14 0.13 0.13 0.13 0.13 0.16 0.30 0.46 0.63 0.81 0.91 0.96 1.06 1.15 1.31 1.37 1.41 1.39 1.29 1.33 1.30 1.30 1.29 1.26 1.20 1.13 1.07 1.02 0.98 0.89 0.84 0.84 0.85 0.78 0.70 0.65 0.66 0.61 0.54
1.05 0.86 0.36 0.12 0.10 0.10 0.07 0.07 0.08 0.12 0.15 0.14 0.17 0.17 0.21 0.28 0.42 0.55 0.60 0.75 0.86 0.96 1.18 1.26 1.42 1.51 1.59 1.51 1.50 1.53 1.38 1.34 1.33 1.21 1.13 1.11 1.08 1.04 0.93 0.88 0.84 0.84 0.85 0.88 0.84 0.75 0.67 0.59 0.49
0.82 0.60 0.26 0.13 0.11 0.13 0.14 0.12 0.10 0.15 0.17 0.13 0.17 0.22 0.26 0.38 0.49 0.58 0.60 0.72 0.85 1.00 1.25 1.46 1.58 1.73 1.76 1.70 1.65 1.63 1.54 1.44 1.43 1.32 1.30 1.28 1.27 1.17 1.08 1.00 0.93 0.93 0.91 0.97 0.99 0.99 0.84 0.74 0.66
0.62 0.40 0.25 0.17 0.14 0.17 0.19 0.17 0.15 0.14 0.10 0.08 0.12 0.20 0.32 0.41 0.47 0.57 0.64 0.77 0.97 1.16 1.35 1.64 1.87 2.01 2.02 1.96 1.84 1.67 1.54 1.43 1.46 1.44 1.40 1.44 1.40 1.28 1.15 1.05 0.97 0.94 0.93 0.95 1.03 1.06 0.99 0.90 0.79
0.58 0.37 0.26 0.22 0.20 0.19 0.20 0.19 0.17 0.15 0.10 0.12 0.17 0.20 0.29 0.36 0.47 0.62 0.78 0.91 1.07 1.17 1.35 1.69 1.92 2.08 2.13 2.24 2.18 1.87 1.65 1.49 1.47 1.53 1.46 1.36 1.36 1.31 1.21 1.09 0.98 0.91 0.88 0.88 0.90 0.91 0.94 0.92 0.85
0.55 0.41 0.31 0.27 0.28 0.24 0.23 0.20 0.18 0.15 0.14 0.22 0.28 0.28 0.30 0.31 0.41 0.65 0.85 0.99 1.12 1.23 1.34 1.64 1.98 2.18 2.25 2.19 2.26 2.16 1.96 1.77 1.66 1.55 1.47 1.37 1.30 1.27 1.18 1.06 0.94 0.85 0.79 0.77 0.76 0.73 0.75 0.79 0.78
0.58 0.59 0.50 0.38 0.33 0.30 0.31 0.27 0.15 0.12 0.19 0.29 0.36 0.40 0.39 0.38 0.40 0.55 0.75 0.92 1.06 1.29 1.56 1.73 2.03 2.33 2.40 2.32 2.27 2.32 2.30 2.14 2.00 1.78 1.59 1.47 1.35 1.26 1.24 1.18 1.09 0.99 0.91 0.85 0.81 0.75 0.69 0.68 0.69
0.89 0.96 0.84 0.48 0.37 0.37 0.51 0.38 0.13 0.13 0.25 0.32 0.39 0.45 0.47 0.47 0.43 0.48 0.67 0.89 1.09 1.31 1.58 1.92 2.13 2.33 2.39 2.46 2.46 2.41 2.43 2.39 2.17 2.00 1.86 1.67 1.51 1.35 1.33 1.28 1.16 1.11 1.11 1.04 0.99 0.91 0.85 0.74 0.66
1.37 1.20 0.78 0.48 0.41 0.46 0.55 0.37 0.15 0.19 0.29 0.37 0.41 0.46 0.52 0.57 0.56 0.55 0.63 0.80 1.05 1.25 1.44 1.81 2.15 2.25 2.33 2.46 2.63 2.63 2.64 2.58 2.39 2.15 1.94 1.84 1.73 1.53 1.36 1.31 1.23 1.16 1.13 1.08 1.05 1.02 0.98 0.93 0.83
1.16 0.84 0.62 0.47 0.41 0.49 0.50 0.33 0.20 0.25 0.34 0.38 0.39 0.47 0.54 0.58 0.52 0.55 0.66 0.81 1.04 1.25 1.46 1.72 2.12 2.34 2.51 2.63 2.70 2.79 2.77 2.69 2.59 2.45 2.19 2.03 1.94 1.79 1.59 1.44 1.36 1.32 1.26 1.14 1.03 1.01 1.03 1.01 0.96
0.81 0.70 0.62 0.44 0.37 0.50 0.46 0.32 0.24 0.27 0.33 0.38 0.40 0.47 0.52 0.54 0.56 0.64 0.76 0.93 1.11 1.25 1.39 1.60 1.98 2.18 2.43 2.52 2.47 2.39 2.44 2.45 2.46 2.46 2.42 2.29 2.17 2.03 1.84 1.66 1.55 1.53 1.44 1.31 1.15 1.05 1.03 1.02 0.99
0.93 0.89 0.66 0.50 0.41 0.53 0.48 0.33 0.24 0.25 0.32 0.35 0.39 0.46 0.51 0.56 0.64 0.69 0.84 1.02 1.09 1.15 1.28 1.46 1.77 2.01 2.17 2.20 2.19 2.16 2.16 2.25 2.32 2.36 2.44 2.52 2.44 2.28 2.10 1.87 1.70 1.60 1.60 1.53 1.37 1.23 1.13 1.06 0.99
1.03 0.87 0.68 0.63 0.61 0.67 0.65 0.56 0.32 0.29 0.31 0.33 0.39 0.44 0.47 0.53 0.59 0.61 0.75 1.01 1.14 1.13 1.22 1.35 1.58 1.80 2.05 2.27 2.40 2.43 2.52 2.48 2.37 2.32 2.34 2.43 2.46 2.37 2.22 2.05 1.95 1.85 1.71 1.59 1.53 1.47 1.37 1.26 1.13
1.07 0.66 0.64 0.71 1.01 1.19 0.95 1.06 0.49 0.33 0.35 0.33 0.38 0.47 0.46 0.51 0.57 0.58 0.67 0.91 1.10 1.11 1.26 1.42 1.60 1.84 2.00 2.26 2.39 2.27 2.24 2.29 2.11 2.04 2.08 2.26 2.44 2.44 2.33 2.22 2.13 2.01 1.88 1.71 1.60 1.61 1.60 1.57 1.50
0.78 0.62 0.75 0.90 1.18 1.36 1.01 1.11 0.61 0.36 0.45 0.41 0.41 0.51 0.48 0.50 0.56 0.56 0.62 0.82 1.04 1.15 1.27 1.49 1.64 1.86 2.04 2.17 2.25 2.20 2.09 2.03 2.10 2.20 2.19 2.17 2.27 2.45 2.45 2.32 2.24 2.11 1.96 1.86 1.76 1.66 1.66 1.66 1.63
0.77 0.99 1.27 1.44 1.97 2.14 0.95 0.89 0.71 0.55 0.59 0.51 0.48 0.54 0.53 0.53 0.58 0.63 0.67 0.81 0.97 1.13 1.28 1.44 1.69 1.86 2.08 2.20 2.18 2.03 1.93 1.90 1.95 2.03 2.20 2.25 2.24 2.33 2.43 2.37 2.28 2.16 1.98 1.87 1.88 1.80 1.74 1.73 1.71
1.28 1.93 2.96 3.27 3.22 1.93 0.57 0.61 0.73 0.59 0.55 0.56 0.57 0.57 0.57 0.59 0.64 0.66 0.69 0.78 0.86 1.01 1.19 1.34 1.55 1.84 2.05 2.20 2.15 1.95 1.82 1.80 1.83 1.89 1.99 2.07 2.14 2.19 2.24 2.27 2.18 2.05 1.95 1.81 1.80 1.83 1.80 1.76 1.80
1.36 1.57 2.14 2.25 1.66 0.84 0.47 0.57 0.61 0.53 0.46 0.47 0.50 0.54 0.50 0.58 0.69 0.69 0.67 0.75 0.84 0.96 1.12 1.30 1.45 1.71 1.96 2.11 2.11 2.00 1.78 1.72 1.77 1.84 1.87 1.90 1.83 1.85 2.00 2.17 2.25 2.08 1.91 1.85 1.82 1.78 1.73 1.73 1.76
1.30 1.33 1.11 1.49 1.08 0.72 0.63 0.52 0.44 0.38 0.36 0.41 0.47 0.56 0.57 0.61 0.71 0.75 0.73 0.79 0.84 0.95 1.09 1.27 1.42 1.60 1.85 2.07 2.09 2.06 1.89 1.77 1.74 1.80 1.83 1.90 1.86 1.78 1.83 1.99 2.16 2.25 2.17 2.01 1.92 1.87 1.78 1.76 1.79
1.14 1.25 1.49 2.05 1.72 1.00 0.60 0.46 0.53 0.46 0.42 0.42 0.48 0.60 0.62 0.62 0.69 0.76 0.77 0.82 0.88 1.00 1.12 1.26 1.41 1.53 1.71 1.92 2.04 2.05 2.06 1.90 1.84 1.85 1.83 1.82 1.88 1.88 1.83 1.85 1.92 2.01 2.09 2.10 2.05 1.97 1.82 1.77 1.74
1.24 1.55 1.85 1.88 1.49 1.25 0.84 0.62 0.57 0.48 0.43 0.43 0.45 0.56 0.63 0.66 0.71 0.80 0.85 0.85 0.89 1.04 1.16 1.23 1.33 1.51 1.68 1.77 1.85 1.94 2.09 1.98 1.91 1.91 1.87 1.79 1.78 1.89 1.90 1.88 1.96 1.98 1.97 1.98 2.05 2.03 1.98 1.95 1.89
1.05 1.31 1.55 1.92 1.48 0.97 0.93 0.73 0.48 0.39 0.37 0.37 0.40 0.50 0.59 0.63 0.71 0.74 0.79 0.84 0.85 0.97 1.15 1.25 1.32 1.38 1.58 1.74 1.79 1.86 2.00 2.07 1.98 1.94 1.89 1.77 1.69 1.73 1.84 1.90 1.95 2.05 2.09 2.05 2.07 2.04 1.99 2.06 2.03